This is the latest recevied weather packets stored in our database for station/object SR6NWB-11. If no packets are shown the sender has not sent any weather packets the latest 1 day(s).
| Time | Temp. | Humidity | Pressure | Rain* | Wind** | Luminosity | Snow |
|---|---|---|---|---|---|---|---|
| 1777974333 | 20° C | 34% | 1013.4 hPa | 0 mm | 0 m/s | - | - |
| 1777973817 | 20° C | 35% | 1013.5 hPa | 0 mm | 0 m/s | - | - |
| 1777973302 | 19.44° C | 36% | 1013.4 hPa | 0 mm | 0 m/s | - | - |
| 1777972807 | 19.44° C | 37% | 1013.4 hPa | 0 mm | 0 m/s | - | - |
| 1777972225 | 18.89° C | 38% | 1013.5 hPa | 0 mm | 0 m/s | - | - |
| 1777971673 | 18.33° C | 38% | 1013.5 hPa | 0 mm | 0 m/s | - | - |
| 1777971107 | 17.78° C | 38% | 1013.5 hPa | 0 mm | 0 m/s | - | - |
| 1777970516 | 18.33° C | 37% | 1013.7 hPa | 0 mm | 0 m/s | - | - |
| 1777970013 | 18.33° C | 38% | 1013.6 hPa | 0 mm | 0 m/s | - | - |
| 1777969452 | 17.78° C | 39% | 1013.8 hPa | 0 mm | 0 m/s | - | - |
| 1777968877 | 17.22° C | 41% | 1013.7 hPa | 0 mm | 0 m/s | - | - |
| 1777968312 | 16.67° C | 42% | 1013.8 hPa | 0 mm | 0 m/s | - | - |
| 1777967797 | 16.67° C | 43% | 1014 hPa | 0 mm | 0 m/s | - | - |
| 1777967312 | 16.67° C | 43% | 1014 hPa | 0 mm | 0 m/s | - | - |
| 1777966807 | 17.22° C | 43% | 1014.2 hPa | 0 mm | 0 m/s | - | - |
| 1777966207 | 17.22° C | 42% | 1014.2 hPa | 0 mm | 0 m/s | - | - |
| 1777965622 | 17.22° C | 42% | 1014.2 hPa | 0 mm | 0 m/s | - | - |
| 1777965137 | 17.22° C | 41% | 1014 hPa | 0 mm | 0 m/s | - | - |
| 1777964547 | 16.67° C | 41% | 1014.2 hPa | 0 mm | 0 m/s | - | - |
| 1777964042 | 16.67° C | 41% | 1014.2 hPa | 0 mm | 0 m/s | - | - |
| 1777963452 | 16.67° C | 42% | 1014.1 hPa | 0 mm | 0 m/s | - | - |
| 1777962968 | 16.11° C | 42% | 1014.2 hPa | 0 mm | 0 m/s | - | - |
| 1777962458 | 16.11° C | 42% | 1014.2 hPa | 0 mm | 0 m/s | - | - |
| 1777961887 | 16.11° C | 42% | 1014.2 hPa | 0 mm | 0 m/s | - | - |
| 1777961342 | 16.11° C | 43% | 1014.2 hPa | 0 mm | 0 m/s | - | - |
* Rain latest hour (hover to see other rain measurements)
** Current wind speed in m/s (hover to see current wind gust speed)